KD3XC Weather Reports


time (UTC)temp
F
wind
direction
speed
knots
gust
knots
rain 1hr
in
rain 24hr
in
rain mn
in
humidity
%
barometer
mb
20260504050008 47 199 0.0 1.7 0.00 0.00 0.00 43 1015.1
20260504044600 47 199 0.0 1.7 0.00 0.00 0.00 43 1015.1
20260504043100 46 199 0.9 1.7 0.00 0.00 0.00 44 1015.1
20260504041555 45 199 0.9 1.7 0.00 0.00 0.00 44 1015.1
20260504040053 45 199 0.0 1.7 0.00 0.00 0.00 45 1015.1
20260504034553 46 199 0.9 1.7 0.00 0.00 0.00 45 1015.2
20260504033051 46 199 0.9 1.7 0.00 0.00 0.00 45 1015.2
20260504031552 46 199 0.9 1.7 0.00 0.00 0.00 44 1015.3
20260504030051 46 199 0.9 2.6 0.00 0.00 0.00 43 1015.5
20260504024553 46 199 0.9 2.6 0.00 0.00 0.00 44 1015.4
20260504023049 46 107 0.0 1.7 0.00 0.00 0.00 48 1015.5
20260504021549 46 107 0.0 0.0 0.00 0.00 0.00 44 1015.4
20260504020126 47 107 0.0 0.9 0.00 0.00 0.00 45 1015.6
20260504014600 48 107 0.0 0.9 0.00 0.00 0.00 44 1015.4
20260504013058 49 107 0.0 0.0 0.00 0.00 0.00 46 1015.5
20260504011548 50 107 0.0 0.0 0.00 0.00 0.00 37 1015.4
20260504010047 50 107 0.0 1.7 0.00 0.00 0.00 35 1015.3
20260504004617 51 107 0.0 1.7 0.00 0.00 0.00 36 1015.2
20260504003050 52 107 0.0 0.0 0.00 0.00 0.00 34 1015.2
20260504001616 53 107 0.0 0.9 0.00 0.00 0.00 38 1015.2
20260504000045 54 108 0.0 0.0 0.00 0.00 0.00 32 1015.2
20260503234543 54 107 0.0 0.9 0.00 0.00 0.00 30 1015.2
20260503233043 55 150 0.0 3.5 0.00 0.00 0.00 29 1015.3
20260503231541 56 201 0.0 7.0 0.00 0.00 0.00 28 1015.3
20260503230058 56 307 0.0 4.3 0.00 0.00 0.00 28 1015.3
20260503224539 56 88 0.9 7.0 0.00 0.00 0.00 26 1015.4
20260503223039 57 207 0.0 4.3 0.00 0.00 0.00 26 1015.5
20260503221537 57 256 0.9 5.2 0.00 0.00 0.00 29 1015.6
20260503220044 57 10 0.0 2.6 0.00 0.00 0.00 27 1015.5
20260503214536 58 257 1.7 7.8 0.00 0.00 0.00 25 1015.6
20260503213036 59 218 0.9 6.1 0.00 0.00 0.00 24 1015.5
20260503211535 60 186 0.9 5.2 0.00 0.00 0.00 24 1015.6
20260503210034 59 203 0.0 5.2 0.00 0.00 0.00 25 1015.6
20260503204532 60 93 0.9 5.2 0.00 0.00 0.00 24 1015.8
20260503203045 60 19 3.5 7.8 0.00 0.00 0.00 26 1016.0
20260503201532 61 247 0.9 7.8 0.00 0.00 0.00 24 1016.2
20260503200027 59 251 2.6 12.2 0.00 0.00 0.00 24 1016.4
20260503194536 58 1 4.3 7.8 0.00 0.00 0.00 25 1016.6
20260503193024 59 9 4.3 8.7 0.00 0.00 0.00 23 1016.8
20260503191523 58 5 3.5 11.3 0.00 0.00 0.00 25 1017.0
20260503190034 58 191 2.6 12.2 0.00 0.00 0.00 26 1017.3
20260503184524 59 286 2.6 13.9 0.00 0.00 0.00 23 1017.3
20260503183018 57 92 0.9 13.9 0.00 0.00 0.00 31 1017.4
20260503181518 58 357 2.6 13.9 0.00 0.00 0.00 23 1017.6
20260503180016 58 300 1.7 5.2 0.00 0.00 0.00 23 1017.7
20260503174512 57 23 2.6 7.0 0.00 0.00 0.00 25 1017.9
20260503173009 57 170 2.6 8.7 0.00 0.00 0.00 28 1018.2
20260503171505 57 62 0.9 8.7 0.00 0.00 0.00 30 1018.1
20260503081536 35 234 0.0 0.0 0.00 0.00 0.00 48 1017.6
20260503071528 35 261 0.0 1.7 0.00 0.00 0.00 51 1017.4